Regional Weather Roundup
Issued by NWS

Home | Current Version | Previous Version | Graphics & Text | Print | Product List | Glossary On
Versions: 1 2 3 4 5 6 7 8 9 10 11 12 13 14 15 16 17 18 19 20 21 22 23 24 25 26 27 28 29 30 31 32 33 34 35 36 37 38 39 40 41 42 43 44 45 46 47 48 49 50
000
ASUS43 KFSD 242010
RWRSD

WEATHER ROUNDUP FOR SOUTH DAKOTA
NATIONAL WEATHER SERVICE SIOUX FALLS SD
300 PM CDT THU JUL 24 2014

NOTE: "FAIR" INDICATES FEW OR NO CLOUDS BELOW 12,000 FEET WITH NO
SIGNIFICANT WEATHER AND/OR OBSTRUCTIONS TO VISIBILITY.


SDZ001>005-009-010-012>017-242100-
NORTHWEST AND NORTH CENTRAL SOUTH DAKOTA

CITY           SKY/WX    TMP DP  RH WIND       PRES   REMARKS
BUFFALO          N/A     85  67  54 SE13      29.72F
FAITH            N/A     88  66  48 SE9G18    29.76F
MOBRIDGE       PTSUNNY   82  67  60 S20G26    29.76F
$$

SDZ012>016-024>037-041>051-057-063-072>074-242100-
SOUTHWEST AND SOUTH CENTRAL SOUTH DAKOTA

CITY           SKY/WX    TMP DP  RH WIND       PRES   REMARKS
RAPID CTY ARPT PTSUNNY   91  67  44 CALM      29.80S
PIERRE         SUNNY     95  67  39 SE21      29.71F HX  99
CUSTER         MOSUNNY   93  44  18 W16G24    29.99F
ELLSWORTH AFB  MOSUNNY   89  60  37 SE5       29.79F
PHILIP         MOSUNNY  100  63  29 E7        29.71F HX 102
PINE RIDGE     MOSUNNY   98  57  25 SW9       29.81F HX  97
WINNER         FAIR      97  67  37 S22G33    29.77F HX 101
$$

SDZ004>011-016>023-039-040-242100-
NORTHEAST SOUTH DAKOTA

CITY           SKY/WX    TMP DP  RH WIND       PRES   REMARKS
ABERDEEN       MOSUNNY   76  63  64 SE23G35   29.86F
WATERTOWN      CLOUDY    64  61  90 SE17G26   29.97F
SISSETON         N/A     69  66  90 S21G30    29.90F
$$

SDZ017-020-022-023-036>040-048>070-242100-
SOUTHEAST SOUTH DAKOTA

CITY           SKY/WX    TMP DP  RH WIND       PRES   REMARKS
SIOUX FALLS    PTSUNNY   75  63  66 SE21G29   29.96R
HURON          PTSUNNY   78  66  66 E20G28    29.89R
CHAMBERLAIN    SUNNY     87  68  53 S22G30    29.79F
MITCHELL       MOSUNNY   85  67  54 S20G30    29.87S
YANKTON        MOSUNNY   82  66  57 SE23G35   29.89F
$$

ABBREVIATIONS USED IN REMARKS
   TC - TEMPERATURE IN CELSIUS
  WCI - WIND CHILL INDEX
   HX - HEAT INDEX
  VSB - VISIBILITY




USA.gov is the U.S. government's official web portal to all federal, state and local government web resources and services.